EST,Max TemperatureF,Mean TemperatureF,Min TemperatureF,Max Dew PointF,MeanDew PointF,Min DewpointF,Max Humidity, Mean Humidity, Min Humidity, Max Sea Level PressureIn, Mean Sea Level PressureIn, Min Sea Level PressureIn, Max VisibilityMiles, Mean VisibilityMiles, Min VisibilityMiles, Max Wind SpeedMPH, Mean Wind SpeedMPH, Max Gust SpeedMPH,PrecipitationIn, CloudCover, Events, WindDirDegrees
2013-1-1,75,62,48,56,49,45,94,81,46,30.23,30.15,30.02,10,5,0,15,1,18,0.00,5,Fog,228
2013-1-2,75,65,55,63,59,53,90,80,64,30.09,30.02,29.98,10,10,10,15,5,16,0.00,5,,279
2013-1-3,62,56,50,58,53,46,90,86,77,30.25,30.16,30.07,10,8,3,10,6,,0.08,8,Rain,4
2013-1-4,57,52,48,49,46,42,89,81,72,30.33,30.28,30.24,10,10,6,10,7,,0.00,5,,350
2013-1-5,63,54,45,51,45,37,86,72,60,30.38,30.31,30.27,10,10,10,9,5,,0.00,1,,9
2013-1-6,63,58,52,54,52,45,94,85,67,30.25,30.18,30.13,10,8,2,12,4,,0.55,8,Rain,356
2013-1-7,63,56,48,53,47,41,80,74,63,30.30,30.25,30.19,10,10,10,17,9,23,0.00,3,,17
2013-1-8,69,64,59,61,57,53,90,83,73,30.30,30.25,30.20,10,8,4,10,6,,0.03,8,Rain,27
2013-1-9,73,66,60,66,62,57,94,88,73,30.36,30.31,30.25,10,5,0,8,4,,0.00,7,Fog-Rain,35
2013-1-10,78,68,59,66,62,57,94,88,61,30.37,30.33,30.29,10,5,0,10,2,18,0.00,5,Fog-Rain,64
2013-1-11,82,70,57,65,60,55,100,84,39,30.29,30.24,30.18,10,6,0,14,2,,0.01,1,Fog,165
2013-1-12,80,70,59,65,60,57,100,84,47,30.22,30.18,30.12,10,5,0,8,2,,0.00,2,Fog,149
2013-1-13,80,68,57,63,59,55,94,79,45,30.19,30.13,30.09,10,8,2,10,3,,0.01,1,,166
2013-1-14,81,69,57,64,59,55,94,79,47,30.21,30.16,30.12,10,8,1,12,3,,0.00,1,,168
2013-1-15,81,70,59,64,61,56,90,75,47,30.17,30.12,30.07,10,9,2,14,4,17,0.00,2,,169
2013-1-16,82,73,64,64,60,56,87,69,41,30.10,30.05,30.00,10,10,10,15,7,20,0.00,1,,197
2013-1-17,78,61,44,61,50,30,87,69,51,30.15,29.99,29.90,10,10,3,28,8,37,0.00,4,Rain,247
2013-1-18,57,50,44,45,39,32,73,63,53,30.41,30.32,30.17,10,10,10,23,15,31,0.00,5,,16
2013-1-19,61,56,50,53,49,43,89,77,67,30.38,30.30,30.21,10,9,6,16,9,26,0.00,4,,11
2013-1-20,73,62,51,54,49,45,94,71,37,30.23,30.16,30.09,10,9,7,8,4,,0.00,3,,359
2013-1-21,70,59,48,49,45,42,89,66,40,30.14,30.09,30.04,10,10,9,10,2,,0.00,2,,326
2013-1-22,63,54,45,41,31,24,71,46,24,30.32,30.22,30.10,10,10,8,13,7,17,0.00,0,,332
2013-1-23,64,52,41,40,31,25,80,53,28,30.43,30.34,30.29,10,10,10,13,3,,0.00,0,,336
2013-1-24,73,58,42,52,44,37,85,60,37,30.31,30.26,30.20,10,10,10,16,5,22,0.00,1,,288
2013-1-25,73,64,54,54,50,39,87,68,28,30.34,30.26,30.18,10,10,9,12,7,17,0.00,0,,16
2013-1-26,75,64,54,57,54,46,90,68,50,30.25,30.20,30.16,10,10,7,10,5,16,0.00,2,,251
2013-1-27,68,64,60,58,54,51,86,74,55,30.38,30.33,30.25,10,10,8,15,8,22,0.01,7,Rain,37
2013-1-28,75,64,53,61,57,52,94,82,56,30.38,30.33,30.28,10,7,0,13,3,18,0.00,5,Fog,93
2013-1-29,78,66,55,64,59,54,94,84,58,30.27,30.21,30.12,10,6,0,14,3,18,0.00,1,Fog,149
2013-1-30,84,72,59,64,60,55,87,66,44,30.12,29.94,29.80,10,9,2,28,11,43,0.14,4,Rain,199
2013-1-31,60,54,46,49,33,22,83,48,24,30.26,30.10,29.92,10,10,4,16,12,25,0.05,1,Rain,294